User: anonymous   Login
Location: Unspecified
(0.0000°N, 0.0000°E)
Time: 09:28:35
(UTC+00:00)
Language:

TECHNOSAT - Orbit

View from above orbital plane
View from above orbital plane
View from above satellite
View from above satellite

Ground track
Ground track

The orbit data is extracted from the following two-line orbital elements,

1 42829U 17042E   18267.76524294 +.00000057 +00000-0 +11213-4 0  9996
2 42829 097.5854 166.3117 0013077 224.2805 135.7368 14.90863289065162
Epoch (UTC): 24 September 2018 18:21:56
Eccentricity: 0.0013077
inclination: 97.5854°
perigee height: 586 km
apogee height: 604 km
right ascension of ascending node: 166.3117°
argument of perigee: 224.2805°
revolutions per day: 14.90863289
mean anomaly at epoch: 135.7368°
orbit number at epoch: 6516

The dashed part of the orbit path shows where the satellite is in the earth's shadow,  

DLR